Location: Stockholm
(59.3330°N, 18.0500°E)
Time: 10:43:48
(UTC+01:00)

FENGYUN 1C DEB - Pass Details

Date: 13 December 2023
Orbit: 850 x 2580 km, 98.6° (Epoch: 26 November)

Event Time Altitude Azimuth Distance (km) Brightness Sun altitude
Exits shadow 18:46:11 10° 34° (NE) 4,453 ? -27.9°
Maximum altitude 18:55:14 29° 342° (NNW) 3,603 ? -29.1°
Drops below altitude 10° 19:05:49 10° 291° (WNW) 5,245 ? -30.4°
Sets 19:10:15 0° 282° (WNW) 6,301 ? -31.0°
